TimePST,TemperatureF,Dew PointF,Humidity,Sea Level PressureIn,VisibilityMPH,Wind Direction,Wind SpeedMPH,Gust SpeedMPH,PrecipitationIn,Events,Conditions,WindDirDegrees,DateUTC
12:53 AM,37.0,33.1,86,30.17,10.0,SSW,11.5,-,N/A,,Overcast,210,2013-02-13 08:53:00
1:53 AM,37.0,33.1,86,30.17,10.0,SW,19.6,-,N/A,,Overcast,220,2013-02-13 09:53:00
2:53 AM,36.0,33.1,89,30.15,10.0,SW,18.4,-,N/A,,Partly Cloudy,220,2013-02-13 10:53:00
3:53 AM,36.0,34.0,93,30.16,10.0,SW,15.0,-,N/A,,Partly Cloudy,220,2013-02-13 11:53:00
4:53 AM,36.0,33.1,89,30.16,10.0,SW,15.0,-,N/A,,Partly Cloudy,220,2013-02-13 12:53:00
5:53 AM,35.6,32.0,87,30.12,10.0,SW,18.4,-,N/A,,Partly Cloudy,220,2013-02-13 13:53:00
6:53 AM,35.1,30.9,85,30.17,10.0,SW,16.1,-,N/A,,Mostly Cloudy,230,2013-02-13 14:53:00
7:53 AM,36.0,32.0,86,30.19,10.0,SW,17.3,-,N/A,,Scattered Clouds,230,2013-02-13 15:53:00
8:53 AM,39.0,32.0,76,30.21,10.0,WSW,13.8,-,N/A,,Mostly Cloudy,240,2013-02-13 16:53:00
9:53 AM,41.0,30.9,67,30.22,10.0,WSW,16.1,-,N/A,,Mostly Cloudy,240,2013-02-13 17:53:00
10:53 AM,43.0,30.9,62,30.23,10.0,WSW,12.7,-,N/A,,Mostly Cloudy,250,2013-02-13 18:53:00
11:53 AM,43.0,28.9,58,30.22,10.0,WSW,10.4,-,N/A,,Mostly Cloudy,250,2013-02-13 19:53:00
12:53 PM,41.0,28.9,62,30.23,10.0,WSW,10.4,-,N/A,,Mostly Cloudy,250,2013-02-13 20:53:00
1:53 PM,42.1,28.0,58,30.22,10.0,WSW,10.4,-,N/A,,Mostly Cloudy,250,2013-02-13 21:53:00
2:53 PM,41.0,27.0,57,30.24,10.0,WSW,12.7,-,N/A,,Mostly Cloudy,250,2013-02-13 22:53:00
3:53 PM,39.0,27.0,62,30.25,10.0,WSW,12.7,-,N/A,,Mostly Cloudy,250,2013-02-13 23:53:00
4:53 PM,37.9,27.0,65,30.25,10.0,WSW,11.5,-,N/A,,Mostly Cloudy,250,2013-02-14 00:53:00
5:53 PM,37.0,26.1,65,30.26,10.0,WSW,11.5,-,N/A,,Scattered Clouds,250,2013-02-14 01:53:00
6:53 PM,35.1,26.1,70,30.28,10.0,WSW,10.4,-,N/A,,Scattered Clouds,250,2013-02-14 02:53:00
7:53 PM,33.1,25.0,72,30.30,10.0,SW,5.8,-,N/A,,Scattered Clouds,230,2013-02-14 03:53:00
8:53 PM,30.9,24.1,76,30.32,10.0,WSW,3.5,-,N/A,,Partly Cloudy,240,2013-02-14 04:53:00
9:53 PM,30.9,24.1,76,30.33,10.0,SW,5.8,-,N/A,,Clear,230,2013-02-14 05:53:00
10:53 PM,30.9,24.1,76,30.34,10.0,SW,4.6,-,N/A,,Partly Cloudy,220,2013-02-14 06:53:00
11:53 PM,27.0,23.0,85,30.37,10.0,WSW,4.6,-,N/A,,Scattered Clouds,240,2013-02-14 07:53:00